Hourly Weather Ruchenaya

Today, 16 April, Friday

Time Temperature Precipitation Wind Pressure Humidity
00:00 +3°C° 0 mm 5 mps 750 mmHg 79%
01:00 +3°C° 0 mm 5 mps 750 mmHg 81%
02:00 +2°C° 0 mm 5 mps 750 mmHg 82%
03:00 +2°C° 0 mm 5 mps 750 mmHg 83%
04:00 +3°C° 0 mm 4 mps 750 mmHg 84%
05:00 +1°C° 0 mm 4 mps 750 mmHg 85%
06:00 +2°C° 0 mm 5 mps 750 mmHg 83%
07:00 +3°C° 0 mm 5 mps 750 mmHg 81%
08:00 +5°C° 0 mm 5 mps 750 mmHg 79%
09:00 +6°C° 0 mm 5 mps 751 mmHg 75%
10:00 +7°C° 0 mm 5 mps 751 mmHg 72%
11:00 +8°C° 0 mm 5 mps 751 mmHg 68%
12:00 +9°C° 0 mm 5 mps 751 mmHg 66%
13:00 +10°C° 0 mm 5 mps 751 mmHg 64%
14:00 +10°C° 0 mm 5 mps 751 mmHg 62%
15:00 +10°C° 0 mm 5 mps 751 mmHg 63%
16:00 +10°C° 0 mm 5 mps 751 mmHg 64%
17:00 +10°C° 0 mm 5 mps 751 mmHg 65%
18:00 +9°C° 0 mm 5 mps 751 mmHg 64%
19:00 +8°C° 0 mm 5 mps 751 mmHg 64%
20:00 +7°C° 0 mm 5 mps 752 mmHg 64%
21:00 +6°C° 0 mm 4 mps 752 mmHg 64%
22:00 +5°C° 0 mm 4 mps 752 mmHg 64%
23:00 +5°C° 0 mm 4 mps 752 mmHg 65%

Tomorrow, 17 April, Saturday

Time Temperature Precipitation Wind Pressure Humidity
00:00 +4°C° 0 mm 4 mps 752 mmHg 67%
01:00 +4°C° 0 mm 4 mps 752 mmHg 70%
02:00 +3°C° 0 mm 4 mps 752 mmHg 72%
03:00 +3°C° 0 mm 4 mps 752 mmHg 74%
04:00 +3°C° 0 mm 4 mps 752 mmHg 76%
05:00 +3°C° 0 mm 4 mps 752 mmHg 77%
06:00 +4°C° 0 mm 4 mps 753 mmHg 74%
07:00 +5°C° 0 mm 4 mps 753 mmHg 71%
08:00 +6°C° 0 mm 4 mps 753 mmHg 67%
09:00 +7°C° 0 mm 4 mps 753 mmHg 64%
10:00 +8°C° 0 mm 4 mps 753 mmHg 61%
11:00 +10°C° 0 mm 4 mps 753 mmHg 57%
12:00 +10°C° 0 mm 5 mps 753 mmHg 54%
13:00 +12°C° 0 mm 5 mps 753 mmHg 50%
14:00 +13°C° 0 mm 5 mps 753 mmHg 46%
15:00 +13°C° 0 mm 5 mps 753 mmHg 46%
16:00 +12°C° 0 mm 4 mps 753 mmHg 46%
17:00 +12°C° 0 mm 4 mps 753 mmHg 46%
18:00 +10°C° 0 mm 4 mps 753 mmHg 51%
19:00 +7°C° 0 mm 4 mps 753 mmHg 56%
20:00 +7°C° 0 mm 3 mps 753 mmHg 61%
21:00 +5°C° 0 mm 3 mps 753 mmHg 64%
22:00 +4°C° 0 mm 3 mps 753 mmHg 67%
23:00 +4°C° 0 mm 3 mps 753 mmHg 71%

Day after tomorrow, 18 April, Sunday

Time Temperature Precipitation Wind Pressure Humidity
00:00 +3°C° 0 mm 3 mps 753 mmHg 73%
01:00 +3°C° 0 mm 3 mps 753 mmHg 76%
02:00 +2°C° 0 mm 3 mps 753 mmHg 79%
03:00 +2°C° 0 mm 3 mps 753 mmHg 80%
04:00 +1°C° 0 mm 3 mps 753 mmHg 81%
05:00 +1°C° 0 mm 3 mps 753 mmHg 83%
06:00 +3°C° 0 mm 3 mps 753 mmHg 75%
07:00 +5°C° 0 mm 4 mps 753 mmHg 67%
08:00 +6°C° 0 mm 4 mps 753 mmHg 59%
09:00 +8°C° 0 mm 5 mps 753 mmHg 53%
10:00 +9°C° 0 mm 5 mps 753 mmHg 47%
11:00 +10°C° 0 mm 5 mps 753 mmHg 42%
12:00 +10°C° 0 mm 5 mps 753 mmHg 40%
13:00 +12°C° 0 mm 5 mps 753 mmHg 39%
14:00 +12°C° 0 mm 5 mps 753 mmHg 38%
15:00 +12°C° 0 mm 5 mps 753 mmHg 41%
16:00 +10°C° 0 mm 5 mps 753 mmHg 45%
17:00 +11°C° 0 mm 4 mps 753 mmHg 48%
18:00 +10°C° 0 mm 4 mps 753 mmHg 54%
19:00 +8°C° 0 mm 3 mps 753 mmHg 60%
20:00 +7°C° 0 mm 3 mps 753 mmHg 66%
21:00 +5°C° 0 mm 3 mps 753 mmHg 68%
22:00 +5°C° 0 mm 3 mps 753 mmHg 70%
23:00 +5°C° 0 mm 3 mps 754 mmHg 72%

19 April, Monday

Time Temperature Precipitation Wind Pressure Humidity
00:00 +4°C° 0 mm 3 mps 754 mmHg 76%
01:00 +4°C° 0 mm 2 mps 754 mmHg 81%
02:00 +4°C° 0 mm 2 mps 754 mmHg 86%
03:00 +3°C° 0 mm 2 mps 754 mmHg 89%
04:00 +3°C° 0 mm 2 mps 754 mmHg 93%
05:00 +2°C° 0 mm 2 mps 754 mmHg 96%
06:00 +3°C° 0 mm 3 mps 754 mmHg 88%
07:00 +4°C° 0 mm 3 mps 754 mmHg 80%
08:00 +7°C° 0 mm 3 mps 754 mmHg 73%
09:00 +8°C° 0 mm 3 mps 754 mmHg 68%
10:00 +8°C° 0 mm 4 mps 754 mmHg 63%
11:00 +10°C° 0 mm 4 mps 754 mmHg 58%
12:00 +10°C° 0 mm 4 mps 754 mmHg 58%
13:00 +9°C° 0 mm 3 mps 754 mmHg 59%
14:00 +9°C° 0 mm 3 mps 754 mmHg 59%
15:00 +9°C° 0 mm 3 mps 754 mmHg 59%
16:00 +8°C° 0 mm 3 mps 754 mmHg 60%
17:00 +8°C° 0 mm 3 mps 754 mmHg 60%
18:00 +8°C° 0 mm 2 mps 754 mmHg 61%
19:00 +7°C° 0 mm 2 mps 754 mmHg 62%
20:00 +7°C° 0 mm 2 mps 754 mmHg 63%
21:00 +6°C° 0 mm 2 mps 753 mmHg 64%
22:00 +6°C° 0 mm 2 mps 753 mmHg 66%
23:00 +5°C° 0 mm 2 mps 753 mmHg 67%

20 April, Tuesday

Time Temperature Precipitation Wind Pressure Humidity
00:00 +4°C° 0 mm 2 mps 753 mmHg 69%
01:00 +3°C° 0 mm 3 mps 753 mmHg 71%
02:00 +2°C° 0 mm 3 mps 753 mmHg 72%
03:00 +1°C° 0 mm 3 mps 753 mmHg 72%
04:00 +1°C° 0 mm 3 mps 752 mmHg 72%
05:00 0°C° 0 mm 3 mps 752 mmHg 73%
06:00 +1°C° 0 mm 3 mps 752 mmHg 66%
07:00 +1°C° 0 mm 4 mps 752 mmHg 59%
08:00 +3°C° 0 mm 4 mps 751 mmHg 52%
09:00 +4°C° 0 mm 4 mps 751 mmHg 51%
10:00 +5°C° 0 mm 5 mps 750 mmHg 50%
11:00 +6°C° 0 mm 5 mps 750 mmHg 49%
12:00 +7°C° 0 mm 5 mps 749 mmHg 50%
13:00 +7°C° 0 mm 5 mps 749 mmHg 50%
14:00 +7°C° 0 mm 5 mps 748 mmHg 51%
15:00 +7°C° 0 mm 5 mps 748 mmHg 55%
16:00 +6°C° 0 mm 5 mps 747 mmHg 58%
17:00 +6°C° 0 mm 5 mps 747 mmHg 62%
18:00 +5°C° 0 mm 5 mps 746 mmHg 63%
19:00 +3°C° 0 mm 5 mps 745 mmHg 65%
20:00 +3°C° 0 mm 5 mps 745 mmHg 66%
21:00 +2°C° 0.8 mm 5 mps 744 mmHg 76%
22:00 +1°C° 0.8 mm 5 mps 743 mmHg 86%
23:00 0°C° 0.8 mm 5 mps 742 mmHg 96%

21 April, Wednesday

Time Temperature Precipitation Wind Pressure Humidity
00:00 0°C° 0.3 mm 5 mps 742 mmHg 96%
01:00 -1°C° 0.3 mm 5 mps 741 mmHg 96%
02:00 -1°C° 0.3 mm 5 mps 740 mmHg 96%
03:00 -1°C° 0.5 mm 4 mps 740 mmHg 96%
04:00 -1°C° 0.5 mm 4 mps 739 mmHg 96%
05:00 -1°C° 0.5 mm 4 mps 739 mmHg 96%
06:00 -1°C° 0.7 mm 4 mps 738 mmHg 96%
07:00 -1°C° 0.7 mm 4 mps 738 mmHg 97%
08:00 -1°C° 0.7 mm 4 mps 737 mmHg 97%
09:00 0°C° 0.3 mm 4 mps 737 mmHg 96%
10:00 0°C° 0.3 mm 4 mps 737 mmHg 96%
11:00 +1°C° 0.3 mm 4 mps 737 mmHg 96%
12:00 +1°C° 0.3 mm 4 mps 736 mmHg 96%
13:00 +3°C° 0.3 mm 4 mps 736 mmHg 96%
14:00 +3°C° 0.3 mm 4 mps 736 mmHg 96%
15:00 +4°C° 0.2 mm 4 mps 736 mmHg 96%
16:00 +4°C° 0.2 mm 4 mps 736 mmHg 96%
17:00 +4°C° 0.2 mm 4 mps 735 mmHg 96%
18:00 +4°C° 0.2 mm 3 mps 735 mmHg 96%
19:00 +4°C° 0.2 mm 3 mps 735 mmHg 96%
20:00 +4°C° 0.2 mm 3 mps 735 mmHg 97%
21:00 +4°C° 0.1 mm 3 mps 735 mmHg 97%
22:00 +4°C° 0.1 mm 3 mps 735 mmHg 97%
23:00 +4°C° 0.1 mm 3 mps 735 mmHg 97%
Show more